Regional Weather Roundup
Issued by NWS Upton, NY

Current Version | Previous Version | Text Only | Print | Product List | Glossary On
Versions: 1 2 3 4 5 6 7 8 9 10 11 12 13 14 15 16 17 18 19 20 21 22 23 24 25 26 27 28 29
000
ASUS41 KOKX 231308
RWROKX

REGIONAL WEATHER ROUNDUP
NATIONAL WEATHER SERVICE NEW YORK NY
800 AM EST THU NOV 23 2017

NOTE: "FAIR" INDICATES FEW OR NO CLOUDS BELOW 12,000 FEET WITH NO
SIGNIFICANT WEATHER AND/OR OBSTRUCTIONS TO VISIBILITY.

NYZ071-072-176-178-NJZ106-104-231400-
NEW YORK CITY METRO AREA

CITY           SKY/WX    TMP DP  RH WIND       PRES   REMARKS
Central Park   CLEAR     32  19  58 VRB3      30.13S
Bronx Bot Gard   N/A     34  19  55 W2        30.11F
Bronx Lehman C   N/A     32  32 100 NW5         N/A  WCI  27
LaGuardia APRT MOSUNNY   35  21  56 NW10      30.12R WCI  27
Queens College   N/A     32  32 100 N7          N/A  WCI  26
Kennedy INTL   MOSUNNY   33  21  61 NW5       30.13R WCI  29
Breezy Point     N/A     32 N/A N/A NW9G15      N/A  WCI  24
Brooklyn Coll    N/A     34  32  93 NW6         N/A  WCI  29
Staten Island    N/A     32  32 100 W2          N/A
Newark/Liberty PTCLDY    33  19  56 W7        30.13R WCI  27
Teterboro      CLEAR     33  20  58 NW5       30.12R WCI  29
$$

NYZ177-179-078>081-231400-
LONG ISLAND NEW YORK

CITY           SKY/WX    TMP DP  RH WIND       PRES   REMARKS
Jones Beach      N/A     34 N/A N/A NW9         N/A  WCI  26
Wantagh          N/A     32  32 100 W3          N/A
Matinecock PT    N/A     36 N/A N/A N10         N/A  WCI  28
Farmingdale    SUNNY     32  22  66 CALM      30.11R
MacArthur/ISP  MOSUNNY   33  24  69 W5        30.10R WCI  29
Shirley        SUNNY     33  26  75 W5        30.11R WCI  29
Mt Sinai Harb    N/A    N/A N/A N/A NW8         N/A
Westhampton    SUNNY     31  26  82 CALM      30.10R
East Hampton   FAIR      34  24  66 NW5       30.09R WCI  30
Southold         N/A     34  32  93 N9          N/A  WCI  26
Montauk          N/A     37  24  59 N8        30.08R WCI  31
$$

NYZ052-065-067-231400-
HUDSON VALLEY

CITY           SKY/WX    TMP DP  RH WIND       PRES   REMARKS
White Plains   PTCLDY    31  20  63 N8        30.09R WCI  23
Larchmont Harb   N/A     32 N/A N/A W3          N/A
Croton On Huds   N/A     32 N/A N/A MISG        N/A
Somers           N/A     30  32 100 NW3         N/A
Brewster         N/A     28  32 100 N6          N/A  WCI  22
Newburgh       CLEAR     27  21  80 NW6       30.11R WCI  20
Montgomery     PTCLDY    30  19  63 NW7       30.09R WCI  23
Suffern          N/A     30  32 100 NW6         N/A  WCI  24
Poughkeepsie   CLEAR     25  20  81 CALM      30.11R
Albany         PTCLDY    28  17  63 W9        30.12R WCI  19
$$

NJZ001-105-106-008-010-013-015-019>022-104-231400-
NEW JERSEY

CITY           SKY/WX    TMP DP  RH WIND       PRES   REMARKS
Newark/Liberty PTCLDY    33  19  56 W7        30.13R WCI  27
Teterboro      CLEAR     33  20  58 NW5       30.12R WCI  29
Caldwell       CLEAR     30  19  63 NW3       30.13R
Somerville     CLOUDY    28  20  71 CALM      30.13R
Linden         FAIR      30  20  64 CALM      30.15R
Perth Amboy      N/A    N/A N/A N/A W9          N/A
Sussex         CLEAR     28  19  69 VRB3      30.11R
Andover          N/A     28  18  66 N5        30.11R WCI  23
Trenton        CLOUDY    30  18  60 NW6       30.14R WCI  24
Millville      CLOUDY    30  24  78 W6        30.17R WCI  24
Atlantic City  CLOUDY    31  23  72 NW7       30.16R WCI  24
Wrightstown    SUNNY     30  19  63 NW7       30.13R WCI  23
Toms River     CLOUDY    29  23  78 W6        30.15R WCI  23
Belmar         SUNNY     30  21  69 W8        30.14R WCI  22
$$

PAZ047>061-062-071-231400-
EASTERN PENNSYLVANIA

CITY           SKY/WX    TMP DP  RH WIND       PRES   REMARKS
Philadelphia   PTCLDY    32  18  56 NW8       30.18R WCI  25
Allentown      CLOUDY    29  17  61 W5        30.15R WCI  24
Scranton       CLOUDY    29  18  63 NW9       30.11R WCI  20
$$

CTZ002-004>006-009-010-012-RIZ004-006-007-MAZ004-011-015-231400-
SOUTHERN NEW ENGLAND
 IN CT

CITY           SKY/WX    TMP DP  RH WIND       PRES   REMARKS
Bradley INTL   PTCLDY    32  21  64 NW3       30.07R
Hartford       SUNNY     33  21  61 NW5       30.08R WCI  29
Danbury        CLEAR     31  18  58 N7        30.09R WCI  24
Wtrbury/Oxford SUNNY     28  19  69 NW7       30.05R WCI  21
Norwalk Harbor   N/A    N/A N/A N/A W7          N/A
Bridgeport     SUNNY     34  21  59 W3        30.11R
Meriden        SUNNY     31  20  63 NW5       30.08R WCI  26
New Haven      MOSUNNY   34  22  61 W5        30.09R WCI  30
Chester        FAIR      32  21  64 VRB7      30.06R WCI  26
Groton         SUNNY     34  25  69 CALM      30.07R
Wilimantic     SUNNY     33  21  61 CALM      30.07R

 IN RI

CITY           SKY/WX    TMP DP  RH WIND       PRES   REMARKS
Providence     MOSUNNY   33  24  69 NW6       30.06R WCI  28
Block Island   SUNNY     35  22  58 N8        30.07R WCI  29
Westerly       MOSUNNY   33  26  75 CALM      30.08R
 IN MA

CITY           SKY/WX    TMP DP  RH WIND       PRES   REMARKS
Boston         MOSUNNY   33  19  56 NW13      30.03F WCI  24
Worcester      CLOUDY    27  15  61 NW8       29.99R WCI  19
Westfield      CLOUDY    32  20  61 NW10      30.05S WCI  24
Provincetown   SUNNY     36  23  59 NW13G23   30.02S WCI  27
Nantucket      SUNNY     36  26  67 NW15      30.03R WCI  27
$$

ANZ330-335-338-340-345-350-353-355-231400-
COASTAL MARINE OBSERVATIONS


STATION/POSITION TIME  SKY/WX   TEMP    WIND        PRES    VSBY  WAVE
                                AIR SEA DIR/SP/G                  HT/PER
                 (UTC)          (F)     (DEG/KT/KT) (MB)    (MI)  (FT/S)
NY HARB ENTRANCE 1150            37 56  340/ 12/ 16 1018.7          4/10
20 S FIRE ISLAND 1150            37 56  330/ 12/ 16 1019.1          5/10
GREAT SOUTH BAY  1200            35 44  280/  6/ 10   N/A
HUDSON CANYON    1150            42 58  330/ 12/ 16 1017.9          6/11
KINGS POINT      1230            33 48   10/  8/ 12 1020.6
EXECUTION ROCKS  1230            35     300/  8/ 12   N/A
WESTERN LI SOUND 1149            35     310/  8/ 16   N/A           0
CENTRAL LI SOUND NOT AVBL
ROBBINS REEF     1230            33     300/  8/ 11 1020.6
$$


>>>>>>>>>>>>>>>>>>>>>>>>>>>> KEY <<<<<<<<<<<<<<<<<<<<<<<<<<<
>                                                          <
>     SKY/WX - Sky Condition/Present Weather               <
>     TMP    - Temperature in Fahrenheit                   <
>     DP     - Dew Point in Fahrenheit                     <
>     RH     - Relative Humidity in Percent                <
>     WIND   - Direction (from) and Speed in MPH           <
>     PRES   - Mean Sea Level Pressure (inches of Hg)      <
>     WCI    - Wind Chill Index                            <
>     VSB    - VISIBILITY IN MILES                         <
>     HX     - HEAT INDEX                                  <
>     TC     - TEMPERATURE IN CELSIUS                      <
>     VRB    - VARIABLE WIND DIRECTION                     <
>                                                          <
>>>>>>>>>>>>>>>>>>>>>>>>>>>> KEY <<<<<<<<<<<<<<<<<<<<<<<<<<<




USA.gov is the U.S. government's official web portal to all federal, state and local government web resources and services.